Tracking 19176 objects as of 25-May-2018
HD Live streaming from Space Station
objects crossing your sky now

NOAA 16 DEB

Track NOAA 16 DEB now!
10-day predictions


NORAD ID: 41527
Int'l Code: 2000-055NB
Perigee: 781.5 km
Apogee: 853.5 km
Inclination: 99.0 °
Period: 101.1 minutes
Semi major axis: 7188 km
RCS: Unknown
Launch date: September 21, 2000
Source: United States (US)
Launch site: AIR FORCE WESTERN TEST RANGE (AFWTR)

Note: This is SATELLITE DEBRIS
aabbcc
Your satellite tracking list
Your tracking list is empty




NASA's NSSDC Master Catalog

Two Line Element Set (TLE):
1 41527U 00055NB  18145.06491509  .00000972  00000-0  43420-3 0  9996
2 41527  98.9863 246.6105 0050035  30.1697 330.2346 14.24447911114113
Source of the keplerian elements: AFSPC